Location: Milton Keynes
(52.0316°N, 0.7531°W)
Time: 15:08:04
(UTC+00:00)

N. Korean satellite - Pass Details

Date: 23 January 2019
Orbit: 457 x 510 km, 97.2° (Epoch: 18 February)

Event Time Altitude Azimuth Distance (km) Brightness Sun altitude
Rises 06:44:03 0° 10° (N) 2,630 10.2 -10.9°
Reaches altitude 10° 06:46:11 10° 8° (N) 1,734 9.3 -10.6°
Maximum altitude 06:49:52 63° 287° (WNW) 566 6.6 -10.1°
Drops below altitude 10° 06:53:30 10° 206° (SSW) 1,696 9.3 -9.5°
Sets 06:55:33 0° 203° (SSW) 2,565 10.2 -9.2°
